[TLELIST] Archives

 

[list_settings.list_name] Current TLEs

May 31st 2009 PST

HST 1 20580U 90037B 09147.89707800 +.00000329 +00000-0 +12449-4 0 04009 2 20580 028.4712 234.7206 0003560 065.6391 294.4299 15.00804921846804 ISS (ZARYA) 1 25544U 98067A 09150.84801883 .00014429 00000-0 10664-3 0 9478 2 25544 051.6406 035.8709 0009449 060.9492 032.7954 15.73210916603220 CXO 1 25867U 99040B 09150.62500000 +.00000346 +00000-0 +10000-3 0 03326 2 25867 065.3653 069.7307 7491730 275.9926 358.1764 00.37807144004946 ____________________________________________________________________ These 2-Line ...Continue Reading

[list_settings.list_name] Current TLEs

May 30th 2009 PST

HST 1 20580U 90037B 09147.89707800 +.00000329 +00000-0 +12449-4 0 04009 2 20580 028.4712 234.7206 0003560 065.6391 294.4299 15.00804921846804 ISS (ZARYA) 1 25544U 98067A 09149.49778935 .00011959 00000-0 89367-4 0 9403 2 25544 051.6414 042.7951 0009550 056.6825 304.8801 15.73161110603012 CXO 1 25867U 99040B 09148.08333333 +.00000341 +00000-0 +10000-3 0 03310 2 25867 065.3630 069.8651 7485014 275.9940 012.1352 00.37804333004934 ____________________________________________________________________ These 2-Line ...Continue Reading

[list_settings.list_name] Current TLEs

May 29th 2009 PST

HST 1 20580U 90037B 09146.50056831 +.00000955 +00000-0 +60572-4 0 03999 2 20580 028.4723 243.8310 0003727 053.1583 306.8828 15.00807874846595 ISS (ZARYA) 1 25544U 98067A 09149.14525309 .00012109 00000-0 90462-4 0 9361 2 25544 051.6415 044.6033 0009584 055.5156 108.1608 15.73152798602951 CXO 1 25867U 99040B 09148.08333333 +.00000341 +00000-0 +10000-3 0 03310 2 25867 065.3630 069.8651 7485014 275.9940 012.1352 00.37804333004934 ____________________________________________________________________ These 2-Line ...Continue Reading

[list_settings.list_name] Current TLEs

May 28th 2009 PST

HST 1 20580U 90037B 09146.50056831 +.00000955 +00000-0 +60572-4 0 03999 2 20580 028.4723 243.8310 0003727 053.1583 306.8828 15.00807874846595 ISS (ZARYA) 1 25544U 98067A 09148.29059736 .00014615 00000-0 10376-3 0 9316 2 25544 051.6403 048.9902 0009377 051.2783 308.9582 15.73134603602821 CXO 1 25867U 99040B 09147.95833333 +.00000341 +00000-0 +10000-3 0 03309 2 25867 065.3621 069.8705 7484845 275.9938 355.1179 00.37802827004935 ____________________________________________________________________ These 2-Line ...Continue Reading

[list_settings.list_name] Current TLEs

May 27th 2009 PST

HST 1 20580U 90037B 09143.50804273 +.00000954 +00000-0 +60572-4 0 03985 2 20580 028.4709 263.3630 0002932 019.6409 340.3038 15.00805724846141 ISS (ZARYA) 1 25544U 98067A 09145.88362593 +.00013823 +00000-0 +10295-3 0 09192 2 25544 051.6410 061.3262 0009693 043.8363 356.1448 15.73071691602440 CXO 1 25867U 99040B 09145.33333333 +.00000385 +00000-0 +10000-3 0 03290 2 25867 065.3593 069.9597 7476723 276.0490 357.6820 00.37795612004926 ____________________________________________________________________ These 2-Line ...Continue Reading

[list_settings.list_name] Current TLEs

May 26th 2009 PST

HST 1 20580U 90037B 09143.50804273 +.00000954 +00000-0 +60572-4 0 03985 2 20580 028.4709 263.3630 0002932 019.6409 340.3038 15.00805724846141 ISS (ZARYA) 1 25544U 98067A 09145.49287037 .00013738 00000-0 10240-3 0 9171 2 25544 051.6407 063.3307 0009737 042.1895 303.4336 15.73059835602378 CXO 1 25867U 99040B 09145.33333333 +.00000385 +00000-0 +10000-3 0 03290 2 25867 065.3593 069.9597 7476723 276.0490 357.6820 00.37795612004926 ____________________________________________________________________ These 2-Line ...Continue Reading

[list_settings.list_name] Current TLEs

May 25th 2009 PST

HST 1 20580U 90037B 09143.50804273 +.00000954 +00000-0 +60572-4 0 03985 2 20580 028.4709 263.3630 0002932 019.6409 340.3038 15.00805724846141 ISS (ZARYA) 1 25544U 98067A 09144.53972222 .00013070 00000-0 97770-4 0 9108 2 25544 051.6402 068.2180 0009738 038.8851 305.4479 15.73029767602226 CXO 1 25867U 99040B 09142.70833333 +.00000516 +00000-0 +10000-3 0 03299 2 25867 065.3434 070.0684 7475170 276.0831 000.2633 00.37804012004911 ____________________________________________________________________ These 2-Line ...Continue Reading

[list_settings.list_name] Current TLEs

May 24th 2009 PST

HST 1 20580U 90037B 09141.51306896 .00000176 00000-0 13541-4 0 3971 2 20580 028.4707 276.3842 0004229 004.3669 355.7334 15.00804121845843 ISS (ZARYA) 1 25544U 98067A 09143.85131362 .00012822 00000-0 96085-4 0 9072 2 25544 051.6398 071.7474 0009780 036.1921 007.1411 15.73009967602122 CXO 1 25867U 99040B 09142.70833333 +.00000516 +00000-0 +10000-3 0 03299 2 25867 065.3434 070.0684 7475170 276.0831 000.2633 00.37804012004911 ____________________________________________________________________ These 2-Line ...Continue Reading

[list_settings.list_name] Current TLEs

May 23rd 2009 PST

HST 1 20580U 90037B 09141.51306896 .00000176 00000-0 13541-4 0 3971 2 20580 028.4707 276.3842 0004229 004.3669 355.7334 15.00804121845843 ISS (ZARYA) 1 25544U 98067A 09142.34422583 .00012773 00000-0 95901-4 0 8972 2 25544 051.6397 079.4754 0009705 031.2461 112.0560 15.72969183601886 CXO 1 25867U 99040B 09142.70833333 +.00000516 +00000-0 +10000-3 0 03299 2 25867 065.3434 070.0684 7475170 276.0831 000.2633 00.37804012004911 ____________________________________________________________________ These 2-Line ...Continue Reading

[list_settings.list_name] Current TLEs

May 21st 2009 PST

HST 1 20580U 90037B 09139.71753166 +.00017295 +00000-0 +13165-2 0 03921 2 20580 028.4698 288.0555 0001537 037.5056 322.4739 15.00761245845579 ISS (ZARYA) 1 25544U 98067A 09139.92127664 +.00011689 +00000-0 +88405-4 0 08846 2 25544 051.6392 091.8962 0009770 022.3416 071.5900 15.72902606601506 CXO 1 25867U 99040B 09140.04166667 +.00000587 +00000-0 +10000-3 0 03279 2 25867 065.3253 070.1974 7473017 276.0693 357.2867 00.37809176004906 ____________________________________________________________________ These 2-Line ...Continue Reading
  • This mailing list is a public mailing list - anyone may join or leave, at any time.
  • This mailing list is announce-only.

International Space Station (ISS) / Hubble Space Telescope (HST) / Chandra X-Ray Observatory Orbital Data via EMAIL

Privacy Policy:

Private list